Weather History for KMTH - August, 2013

Change the Weather History Date:

Tuesday, August 6, 2013

  Actual Average Record
Temperature  
Mean Temperature 85 °F 86 °F  
Max Temperature 91 °F 92 °F 97 °F (2002)
Min Temperature 79 °F 80 °F 75 °F (2004)
Degree Days  
Heating Degree Days 0 0  
Month to date heating degree days 0 0  
Since 1 June heating degree days 0 0  
Since 1 July heating degree days 0 0  
Cooling Degree Days 20 21  
Month to date cooling degree days 133 125  
Year to date cooling degree days 3203 2882  
Since 1 June cooling degree days 1373 1339  
Growing Degree Days 35 (Base 50)    
Moisture  
Dew Point 75 °F    
Average Humidity 72    
Maximum Humidity 85    
Minimum Humidity 59    
Precipitation  
Precipitation 0.35 in 0.21 in 0.35 in (2013)
Month to date precipitation 0.35 1.21  
Year to date precipitation 37.40 23.04  
Snow  
Snow 0.00 in - - ()
Month to date snowfall 0.0  
Since 1 June snowfall 0.0  
Since 1 July snowfall 0.0  
Snow Depth 0.00 in    
Sea Level Pressure  
Sea Level Pressure 29.96 in    
Wind  
Wind Speed 3 mph (SW)    
Max Wind Speed 15 mph    
Max Gust Speed 22 mph    
Visibility 9 miles    
Events Rain , Thunderstorm    
T = Trace of Precipitation, MM = Missing Value Source: NWS Daily Summary

Daily Weather History Graph

Daily Weather History Graph

Search for Another Location

Airport or City:

Trip Planner

Search our weather history database for the weather conditions in past years. The results will help you decide how hot, cold, wet, or windy it might be!

Date:

Astronomy

Aug. 06, 2013 Rise Set
Actual Time 6:54 AM EDT 8:05 PM EDT
Civil Twilight 6:30 AM EDT 8:29 PM EDT
Nautical Twilight 6:01 AM EDT 8:57 PM EDT
Astronomical Twilight 5:32 AM EDT 9:27 PM EDT
Moon 6:38 AM EDT (8/6) 7:48 PM EDT (8/6)
Length of Visible Light 13h 58m
Length of Day
13h 10m
Waning Crescent, 0% of the Moon is Illuminated
Aug 6
Waning Crescent
Aug 6
New
Aug 14
First Quarter
Aug 20
Full
Aug 28
Last Quarter

Hourly Weather History & Observations

Time (EDT) Temp. Heat Index Dew Point Humidity Pressure Visibility Wind Dir Wind Speed Gust Speed Precip Events Conditions
12:53 AM 87.1 °F 96.3 °F 75.0 °F 67% 30.00 in 10.0 mi NW 4.6 mph - N/A Thunderstorm Partly Cloudy
1:43 AM 82.4 °F 89.5 °F 75.2 °F 79% 29.98 in 1.8 mi WNW 12.7 mph 21.9 mph 0.12 in Rain , Thunderstorm Heavy Thunderstorms and Rain
1:53 AM 80.1 °F 84.5 °F 73.9 °F 81% 29.97 in 2.0 mi WNW 5.8 mph - 0.19 in Rain Heavy Rain
1:58 AM 80.6 °F 86.2 °F 75.2 °F 84% 29.97 in 3.0 mi NW 3.5 mph - 0.01 in Rain , Thunderstorm Rain
2:25 AM 80.6 °F 86.2 °F 75.2 °F 84% 29.96 in 10.0 mi Calm Calm - 0.01 in   Partly Cloudy
2:48 AM 80.6 °F 86.2 °F 75.2 °F 84% 29.95 in 10.0 mi WSW 3.5 mph - 0.01 in Thunderstorm Clear
2:53 AM 80.1 °F 85.1 °F 75.0 °F 85% 29.94 in 10.0 mi Calm Calm - 0.01 in Thunderstorm Clear
3:03 AM 80.6 °F 86.2 °F 75.2 °F 84% 29.94 in 10.0 mi Calm Calm - N/A   Clear
3:53 AM 81.0 °F 87.9 °F 77.0 °F 88% 29.94 in 10.0 mi Calm Calm - N/A   Mostly Cloudy
4:05 AM 80.6 °F 87.1 °F 77.0 °F 89% 29.93 in 10.0 mi Calm Calm - N/A   Overcast
4:23 AM 80.6 °F 87.1 °F 77.0 °F 89% 29.93 in 10.0 mi Calm Calm - N/A   Mostly Cloudy
4:53 AM 82.0 °F 90.2 °F 77.0 °F 85% 29.92 in 10.0 mi Calm Calm - 0.00 in   Mostly Cloudy
5:04 AM 82.4 °F 90.9 °F 77.0 °F 84% 29.92 in 10.0 mi Calm Calm - N/A Thunderstorm Mostly Cloudy
5:27 AM 80.6 °F 86.2 °F 75.2 °F 84% 29.92 in 10.0 mi SW 11.5 mph 20.7 mph N/A Thunderstorm Mostly Cloudy
5:44 AM 80.6 °F 86.2 °F 75.2 °F 84% 29.93 in 10.0 mi SSW 6.9 mph - N/A Thunderstorm Thunderstorm
5:53 AM 80.1 °F 84.5 °F 73.9 °F 81% 29.93 in 10.0 mi SSW 8.1 mph - N/A Thunderstorm Thunderstorm
6:10 AM 80.6 °F 85.4 °F 73.4 °F 79% 29.93 in 10.0 mi SSE 9.2 mph - N/A Thunderstorm Mostly Cloudy
6:22 AM 80.6 °F 84.6 °F 71.6 °F 74% 29.94 in 10.0 mi SSE 6.9 mph - N/A   Mostly Cloudy
6:39 AM 80.6 °F 84.6 °F 71.6 °F 74% 29.94 in 10.0 mi ESE 4.6 mph - N/A   Mostly Cloudy
6:53 AM 80.1 °F 83.8 °F 72.0 °F 76% 29.94 in 10.0 mi Variable 5.8 mph - N/A   Partly Cloudy
7:37 AM 80.6 °F 85.4 °F 73.4 °F 79% 29.94 in 10.0 mi South 3.5 mph - N/A Thunderstorm Partly Cloudy
7:53 AM 82.9 °F 88.8 °F 73.0 °F 72% 29.96 in 10.0 mi Calm Calm - N/A Thunderstorm Mostly Cloudy
8:45 AM 84.2 °F 90.9 °F 73.4 °F 70% 29.97 in 10.0 mi Variable 3.5 mph - 0.00 in   Scattered Clouds
8:53 AM 84.9 °F 92.1 °F 73.9 °F 69% 29.97 in 10.0 mi Calm Calm - 0.00 in   Scattered Clouds
9:53 AM 84.0 °F 91.9 °F 75.0 °F 74% 29.99 in 10.0 mi Calm Calm - 0.00 in   Scattered Clouds
10:53 AM 89.1 °F 99.1 °F 75.0 °F 63% 29.99 in 10.0 mi South 5.8 mph - N/A   Scattered Clouds
11:53 AM 88.0 °F 98.5 °F 75.9 °F 67% 29.99 in 10.0 mi Calm Calm - 0.02 in   Overcast
12:45 PM 87.8 °F 97.6 °F 75.2 °F 66% 29.98 in 10.0 mi SSW 4.6 mph - N/A   Mostly Cloudy
12:53 PM 90.0 °F 102.5 °F 77.0 °F 65% 29.98 in 10.0 mi SW 6.9 mph - N/A   Mostly Cloudy
1:13 PM 89.6 °F 99.8 °F 75.2 °F 62% 29.98 in 10.0 mi Variable 5.8 mph - N/A   Mostly Cloudy
1:50 PM 89.6 °F 98.2 °F 73.4 °F 59% 29.97 in 10.0 mi SW 5.8 mph - N/A   Overcast
1:53 PM 89.1 °F 98.0 °F 73.9 °F 61% 29.97 in 10.0 mi WSW 6.9 mph - N/A   Overcast
2:20 PM 86.0 °F 95.1 °F 75.2 °F 70% 29.97 in 10.0 mi West 6.9 mph - N/A Thunderstorm Thunderstorm
2:43 PM 84.2 °F 90.9 °F 73.4 °F 70% 29.97 in 10.0 mi West 10.4 mph 18.4 mph N/A   Overcast
2:53 PM 84.9 °F 92.1 °F 73.9 °F 69% 29.97 in 10.0 mi West 9.2 mph 19.6 mph N/A   Overcast
3:07 PM 84.2 °F 90.9 °F 73.4 °F 70% 29.97 in 10.0 mi West 9.2 mph - N/A   Overcast
3:14 PM 84.2 °F 90.9 °F 73.4 °F 70% 29.96 in 10.0 mi West 9.2 mph 20.7 mph 0.00 in Thunderstorm Thunderstorm
3:38 PM 84.2 °F 90.9 °F 73.4 °F 70% 29.98 in 1.5 mi West 4.6 mph - 0.04 in Rain , Thunderstorm Thunderstorms and Rain
3:46 PM 80.6 °F 86.2 °F 75.2 °F 84% 29.98 in 0.8 mi SE 4.6 mph - 0.12 in Rain Heavy Rain
3:53 PM 81.0 °F 87.3 °F 75.9 °F 85% 29.98 in 1.8 mi SE 10.4 mph - 0.13 in Rain Rain
3:55 PM 80.6 °F 86.2 °F 75.2 °F 84% 29.98 in 2.5 mi SE 9.2 mph - 0.00 in Rain Light Rain
4:03 PM 80.6 °F 86.2 °F 75.2 °F 84% 29.97 in 9.0 mi Variable 6.9 mph - 0.00 in Rain Light Rain
4:40 PM 80.6 °F 86.2 °F 75.2 °F 84% 29.96 in 10.0 mi SSE 4.6 mph - 0.00 in   Scattered Clouds
4:53 PM 82.0 °F 89.4 °F 75.9 °F 82% 29.94 in 10.0 mi Calm Calm - 0.00 in   Partly Cloudy
5:53 PM 84.9 °F 95.3 °F 77.0 °F 77% 29.91 in 10.0 mi Calm Calm - N/A   Clear
6:53 PM 84.0 °F 89.6 °F 72.0 °F 67% 29.92 in 10.0 mi WNW 4.6 mph - N/A   Clear
7:53 PM 84.0 °F 91.2 °F 73.9 °F 72% 29.94 in 10.0 mi West 4.6 mph - N/A   Clear
8:53 PM 84.0 °F 91.2 °F 73.9 °F 72% 29.95 in 10.0 mi NW 3.5 mph - N/A   Clear
9:53 PM 84.0 °F 91.2 °F 73.9 °F 72% 29.95 in 10.0 mi Calm Calm - N/A   Clear
10:53 PM 82.9 °F 89.4 °F 73.9 °F 74% 29.96 in 10.0 mi Calm Calm - N/A   Clear
11:53 PM 82.9 °F 89.4 °F 73.9 °F 74% 29.96 in 10.0 mi Calm Calm - N/A   Clear